Weather History for KETH - March, 2014

Change the Weather History Date:

Monday, March 3, 2014

  Actual Average Record
Temperature  
Mean Temperature 8 °F -  
Max Temperature 15 °F 33 °F 48 °F (1968)
Min Temperature 0 °F 14 °F -9 °F (1978)
Degree Days  
Heating Degree Days 58    
Moisture  
Dew Point 1 °F    
Average Humidity 70    
Maximum Humidity 85    
Minimum Humidity 53    
Precipitation  
Precipitation 0.00 in - - ()
Sea Level Pressure  
Sea Level Pressure 30.33 in    
Wind  
Wind Speed 7 mph (SE)    
Max Wind Speed 23 mph    
Max Gust Speed 23 mph    
Visibility 10 miles    
Events Snow    
Averages and records for this station are not official NWS values.
T = Trace of Precipitation, MM = Missing Value Source: NWS Daily Summary

Daily Weather History Graph

Daily Weather History Graph

Search for Another Location

Airport or City:

Trip Planner

Search our weather history database for the weather conditions in past years. The results will help you decide how hot, cold, wet, or windy it might be!

Date:

Astronomy

Mar. 03, 2014 Rise Set
Actual Time 7:01 AM CST 6:15 PM CST
Civil Twilight 6:31 AM CST 6:45 PM CST
Nautical Twilight 5:56 AM CST 7:20 PM CST
Astronomical Twilight 5:22 AM CST 7:54 PM CST
Moon 8:00 AM CST (3/3) 9:31 PM CST (3/3)
Length of Visible Light 12h 14m
Length of Day
11h 14m
Waxing Crescent, 8% of the Moon is Illuminated
Mar 3
Waxing Crescent
Mar 8
First Quarter
Mar 16
Full
Mar 23
Last Quarter
Mar 30
New

Hourly Weather History & Observations

Time (CST) Temp. Windchill Dew Point Humidity Pressure Visibility Wind Dir Wind Speed Gust Speed Precip Events Conditions
12:14 AM -0.4 °F - -5.8 °F 78% 30.53 in 10.0 mi Calm Calm - N/A   Mostly Cloudy
12:34 AM 1.4 °F - -4.0 °F 78% 30.53 in 10.0 mi Calm Calm - N/A   Overcast
12:54 AM 1.4 °F - -4.0 °F 78% 30.52 in 10.0 mi Calm Calm - N/A   Overcast
1:14 AM 1.4 °F - -4.0 °F 78% 30.53 in 10.0 mi Calm Calm - N/A   Overcast
1:34 AM 1.4 °F - -4.0 °F 78% 30.53 in 10.0 mi Calm Calm - N/A   Overcast
1:54 AM 1.4 °F - -4.0 °F 78% 30.53 in 10.0 mi Calm Calm - N/A   Mostly Cloudy
2:14 AM 1.4 °F - -4.0 °F 78% 30.52 in 10.0 mi Calm Calm - N/A   Mostly Cloudy
2:34 AM 1.4 °F - -2.2 °F 85% 30.52 in 10.0 mi Calm Calm - N/A   Scattered Clouds
2:54 AM 3.2 °F - -4.0 °F 72% 30.51 in 10.0 mi Calm Calm - N/A   Scattered Clouds
3:14 AM 3.2 °F - -2.2 °F 78% 30.50 in 10.0 mi Calm Calm - N/A   Scattered Clouds
3:34 AM 3.2 °F -4.2 °F -2.2 °F 78% 30.50 in 10.0 mi ESE 3.5 mph - N/A   Scattered Clouds
3:54 AM 3.2 °F -4.2 °F -2.2 °F 78% 30.50 in 10.0 mi SE 3.5 mph - N/A   Scattered Clouds
4:14 AM 3.2 °F -7.8 °F -2.2 °F 78% 30.48 in 10.0 mi ESE 5.8 mph - N/A   Mostly Cloudy
4:34 AM 3.2 °F -7.8 °F -2.2 °F 78% 30.48 in 10.0 mi ESE 5.8 mph - N/A   Overcast
4:54 AM 3.2 °F -7.8 °F -2.2 °F 78% 30.48 in 10.0 mi SE 5.8 mph - N/A   Overcast
5:14 AM 5.0 °F -4.1 °F -2.2 °F 72% 30.47 in 10.0 mi SE 4.6 mph - N/A   Overcast
5:34 AM 5.0 °F -8.1 °F -2.2 °F 72% 30.47 in 10.0 mi SE 8.1 mph - N/A   Overcast
5:54 AM 5.0 °F -6.9 °F -2.2 °F 72% 30.46 in 10.0 mi SE 6.9 mph - N/A   Overcast
6:14 AM 5.0 °F -8.1 °F -0.4 °F 78% 30.44 in 10.0 mi SE 8.1 mph - N/A   Overcast
6:34 AM 6.8 °F -5.9 °F -0.4 °F 72% 30.44 in 10.0 mi SE 8.1 mph - N/A   Mostly Cloudy
6:54 AM 6.8 °F -6.9 °F -0.4 °F 72% 30.43 in 10.0 mi SE 9.2 mph - N/A   Mostly Cloudy
7:14 AM 5.0 °F -9.1 °F -0.4 °F 78% 30.42 in 10.0 mi ESE 9.2 mph - N/A   Mostly Cloudy
7:34 AM 5.0 °F -8.1 °F -0.4 °F 78% 30.41 in 10.0 mi SE 8.1 mph - N/A   Scattered Clouds
7:54 AM 6.8 °F -6.9 °F -0.4 °F 72% 30.41 in 10.0 mi SE 9.2 mph - N/A   Overcast
8:14 AM 6.8 °F -7.8 °F -0.4 °F 72% 30.41 in 10.0 mi SE 10.4 mph - N/A   Mostly Cloudy
8:34 AM 6.8 °F -6.9 °F -0.4 °F 72% 30.41 in 10.0 mi SE 9.2 mph - N/A   Overcast
8:54 AM 6.8 °F -8.6 °F -0.4 °F 72% 30.40 in 10.0 mi SE 11.5 mph - N/A   Mostly Cloudy
9:14 AM 8.6 °F -5.5 °F -0.4 °F 67% 30.40 in 10.0 mi SE 10.4 mph - N/A   Scattered Clouds
9:34 AM 8.6 °F -6.3 °F -0.4 °F 67% 30.39 in 10.0 mi SE 11.5 mph - N/A   Clear
9:54 AM 8.6 °F -7.7 °F -0.4 °F 67% 30.37 in 10.0 mi SE 13.8 mph - N/A   Clear
10:14 AM 10.4 °F -5.4 °F 1.4 °F 67% 30.37 in 10.0 mi SE 13.8 mph - N/A   Clear
10:34 AM 10.4 °F -4.8 °F 1.4 °F 67% 30.36 in 10.0 mi SSE 12.7 mph - N/A   Clear
10:54 AM 12.2 °F -1.8 °F -0.4 °F 57% 30.37 in 10.0 mi South 11.5 mph - N/A   Clear
11:14 AM 12.2 °F 0.7 °F 1.4 °F 62% 30.37 in 10.0 mi SSE 8.1 mph - N/A   Clear
11:34 AM 12.2 °F -3.1 °F -0.4 °F 57% 30.35 in 10.0 mi SSE 13.8 mph - N/A   Mostly Cloudy
11:54 AM 12.2 °F -3.1 °F 1.4 °F 62% 30.34 in 10.0 mi SE 13.8 mph - N/A   Overcast
12:14 PM 12.2 °F -1.8 °F 1.4 °F 62% 30.34 in 10.0 mi SE 11.5 mph 17.3 mph N/A   Overcast
12:34 PM 14.0 °F 1.2 °F 1.4 °F 57% 30.34 in 10.0 mi SE 10.4 mph - N/A   Overcast
12:54 PM 14.0 °F -1.4 °F 1.4 °F 57% 30.32 in 10.0 mi SE 15.0 mph - N/A   Overcast
1:14 PM 15.8 °F 2.7 °F 1.4 °F 53% 30.31 in 10.0 mi SE 11.5 mph - N/A   Overcast
1:34 PM 15.8 °F 0.9 °F 1.4 °F 53% 30.29 in 10.0 mi SE 15.0 mph - N/A   Overcast
1:54 PM 15.8 °F 2.1 °F 1.4 °F 53% 30.28 in 10.0 mi ESE 12.7 mph - N/A   Overcast
2:14 PM 15.8 °F -0.2 °F 3.2 °F 58% 30.26 in 10.0 mi ESE 17.3 mph 23.0 mph N/A   Overcast
2:34 PM 15.8 °F -1.1 °F 5.0 °F 62% 30.24 in 10.0 mi ESE 19.6 mph - N/A   Overcast
2:54 PM 15.8 °F -2.3 °F 6.8 °F 68% 30.21 in 10.0 mi ESE 23.0 mph - N/A   Mostly Cloudy
3:14 PM 15.8 °F -1.1 °F 6.8 °F 68% 30.22 in 10.0 mi SE 19.6 mph - N/A   Scattered Clouds
3:34 PM 15.8 °F -1.1 °F 1.4 °F 53% 30.21 in 10.0 mi SE 19.6 mph 23.0 mph N/A   Clear
3:54 PM 15.8 °F -1.1 °F 1.4 °F 53% 30.20 in 10.0 mi SE 19.6 mph - N/A   Scattered Clouds
4:14 PM 15.8 °F -0.2 °F 1.4 °F 53% 30.20 in 10.0 mi SE 17.3 mph - N/A   Scattered Clouds
4:34 PM 15.8 °F 0.9 °F 1.4 °F 53% 30.20 in 10.0 mi SE 15.0 mph 21.9 mph N/A   Scattered Clouds
4:54 PM 15.8 °F 0.3 °F 3.2 °F 58% 30.21 in 10.0 mi SE 16.1 mph - N/A   Scattered Clouds
5:14 PM 15.8 °F 2.1 °F 3.2 °F 58% 30.21 in 10.0 mi SSE 12.7 mph 19.6 mph N/A   Mostly Cloudy
5:34 PM 15.8 °F 0.3 °F 3.2 °F 58% 30.20 in 10.0 mi SE 16.1 mph 20.7 mph N/A Snow Light Snow
5:54 PM 15.8 °F 0.3 °F 3.2 °F 58% 30.20 in 7.0 mi SE 16.1 mph - N/A Snow Light Snow
6:14 PM 14.0 °F -0.2 °F 5.0 °F 67% 30.20 in 4.0 mi SSE 12.7 mph - N/A Snow Light Snow
6:34 PM 14.0 °F -0.2 °F 5.0 °F 67% 30.20 in 10.0 mi SSE 12.7 mph - N/A   Overcast
6:54 PM 14.0 °F 0.5 °F 5.0 °F 67% 30.21 in 10.0 mi SSE 11.5 mph - N/A   Overcast
7:14 PM 14.0 °F -0.8 °F 6.8 °F 73% 30.22 in 10.0 mi SE 13.8 mph - N/A   Overcast
7:35 PM 14.0 °F -0.2 °F 6.8 °F 73% 30.20 in 10.0 mi SE 12.7 mph - N/A   Overcast
7:54 PM 12.2 °F -2.5 °F 6.8 °F 79% 30.19 in 10.0 mi SE 12.7 mph - N/A   Mostly Cloudy
8:14 PM 12.2 °F -1.0 °F 6.8 °F 79% 30.18 in 10.0 mi SE 10.4 mph - N/A   Mostly Cloudy
8:34 PM 12.2 °F 0.7 °F 5.0 °F 73% 30.17 in 10.0 mi SSE 8.1 mph - N/A   Mostly Cloudy
8:54 PM 12.2 °F 0.7 °F 5.0 °F 73% 30.16 in 10.0 mi SE 8.1 mph - N/A   Mostly Cloudy
9:14 PM 12.2 °F 2.9 °F 6.8 °F 79% 30.17 in 10.0 mi SE 5.8 mph - N/A   Overcast
9:34 PM 12.2 °F 4.3 °F 6.8 °F 79% 30.18 in 10.0 mi SE 4.6 mph - N/A   Overcast
9:54 PM 12.2 °F 6.1 °F 6.8 °F 79% 30.20 in 10.0 mi South 3.5 mph - N/A   Overcast
10:14 PM 12.2 °F 4.3 °F 6.8 °F 79% 30.19 in 10.0 mi SE 4.6 mph - N/A   Overcast
10:34 PM 12.2 °F 2.9 °F 6.8 °F 79% 30.18 in 10.0 mi SSE 5.8 mph - N/A   Overcast
10:54 PM 12.2 °F 1.7 °F 6.8 °F 79% 30.18 in 10.0 mi SE 6.9 mph - N/A   Overcast
11:14 PM 12.2 °F 1.7 °F 6.8 °F 79% 30.16 in 10.0 mi SE 6.9 mph - N/A   Overcast
11:34 PM 12.2 °F 6.1 °F 6.8 °F 79% 30.17 in 10.0 mi ESE 3.5 mph - N/A   Overcast
11:54 PM 12.2 °F 4.3 °F 6.8 °F 79% 30.17 in 10.0 mi ESE 4.6 mph - N/A   Overcast